Location: Bois de la Silve
(44.4667°N, 6.7833°E)
Time: 10:59:22
(UTC+00:00)

Cosmos 2221 Rocket - Pass Details

Date: 14 July 2020
Orbit: 619 x 649 km, 82.5° (Epoch: 05 August)

Event Time Altitude Azimuth Distance (km) Brightness Sun altitude
Rises 02:10:47 0° 344° (NNW) 2,910 7.6 -15.3°
Reaches altitude 10° 02:13:06 10° 338° (NNW) 1,997 6.6 -15.1°
Maximum altitude 02:17:15 41° 268° (W) 898 4.1 -14.7°
Enters shadow 02:19:25 24° 212° (SSW) 1,295 4.6 -14.4°
